Anniston, AL

5:02 PM CST on December 15, 2018 (GMT -0600)
Anniston Metro

Weather History for KANB - January, 2018

Change the Weather History Date:

Sunday, January 14, 2018

  Actual Average Record
Temperature  
Mean Temperature 30 °F 43 °F  
Max Temperature 42 °F 53 °F 76 °F (2017)
Min Temperature 18 °F 33 °F 14 °F (1948)
Degree Days  
Heating Degree Days 35    
Month to date heating degree days 347  
Since 1 July heating degree days 1418  
Moisture  
Dew Point 14 °F    
Average Humidity 53    
Maximum Humidity 75    
Minimum Humidity 30    
Precipitation  
Precipitation 0.00 in 0.14 in 1.00 in (1998)
Month to date precipitation 0.79 1.85  
Year to date precipitation 0.79 1.85  
Sea Level Pressure  
Sea Level Pressure 30.56 in    
Wind  
Wind Speed 4 mph (NNE)    
Max Wind Speed 13 mph    
Max Gust Speed 16 mph    
Visibility 10 miles    
Events      
T = Trace of Precipitation, MM = Missing Value Source: NWS Daily Summary

Daily Weather History Graph

Daily Weather History Graph

Search for Another Location

Airport or City:

Astronomy

Jan. 14, 2018 Rise Set
Actual Time 6:47 AM CST 4:57 PM CST
Civil Twilight 6:20 AM CST 5:24 PM CST
Nautical Twilight 5:50 AM CST 5:55 PM CST
Astronomical Twilight 5:20 AM CST 6:25 PM CST
Moon 4:43 AM CST (1/14) 3:13 PM CST (1/14)
Length of Visible Light 11h 03m
Length of Day
10h 09m
Waning Crescent, 5% of the Moon is Illuminated
Jan 14
Waning Crescent
Jan 16
New
Jan 24
First Quarter
Jan 31
Full
Feb 7
Last Quarter

Hourly Weather History & Observations

Time (CST) Temp. Windchill Dew Point Humidity Pressure Visibility Wind Dir Wind Speed Gust Speed Precip Events Conditions
12:53 AM 21.0 °F 12.4 °F 12.9 °F 71% 30.57 in 10.0 mi North 6.9 mph - N/A   Clear
1:53 AM 19.9 °F 14.9 °F 12.9 °F 74% 30.57 in 10.0 mi NNE 3.5 mph - N/A   Clear
2:53 AM 19.9 °F 12.1 °F 12.9 °F 74% 30.56 in 10.0 mi North 5.8 mph - N/A   Clear
3:53 AM 19.0 °F 9.0 °F 12.0 °F 74% 30.57 in 10.0 mi NNE 8.1 mph - N/A   Clear
4:53 AM 19.0 °F 7.5 °F 12.0 °F 74% 30.57 in 10.0 mi North 10.4 mph - N/A   Clear
5:53 AM 19.0 °F 10.0 °F 10.9 °F 71% 30.59 in 10.0 mi North 6.9 mph - N/A   Clear
6:53 AM 18.0 °F 7.7 °F 10.9 °F 74% 30.61 in 10.0 mi NNE 8.1 mph - N/A   Clear
7:53 AM 19.9 °F 11.1 °F 12.0 °F 71% 30.63 in 10.0 mi NE 6.9 mph - N/A   Clear
8:53 AM 24.1 °F 16.0 °F 12.0 °F 60% 30.65 in 10.0 mi North 6.9 mph - N/A   Clear
9:53 AM 27.0 °F 21.6 °F 12.9 °F 56% 30.63 in 10.0 mi Variable 4.6 mph - N/A   Clear
10:53 AM 30.9 °F 27.5 °F 12.9 °F 47% 30.61 in 10.0 mi Variable 3.5 mph - N/A   Clear
11:53 AM 35.1 °F 30.1 °F 12.9 °F 40% 30.57 in 10.0 mi NNE 5.8 mph - N/A   Clear
12:53 PM 39.0 °F 36.8 °F 10.9 °F 32% 30.54 in 10.0 mi North 3.5 mph - N/A   Clear
1:53 PM 39.9 °F 37.8 °F 10.9 °F 31% 30.52 in 10.0 mi East 3.5 mph - N/A   Clear
2:53 PM 39.9 °F 36.7 °F 10.9 °F 31% 30.51 in 10.0 mi NNE 4.6 mph - N/A   Clear
3:53 PM 39.9 °F 37.8 °F 10.9 °F 31% 30.51 in 10.0 mi NW 3.5 mph - N/A   Clear
4:53 PM 37.9 °F 35.5 °F 10.0 °F 32% 30.51 in 10.0 mi North 3.5 mph - N/A   Clear
5:53 PM 30.9 °F - 17.1 °F 57% 30.52 in 10.0 mi Calm Calm - N/A   Clear
6:53 PM 28.0 °F - 19.0 °F 69% 30.53 in 10.0 mi Calm Calm - N/A   Clear
7:53 PM 28.0 °F - 19.9 °F 72% 30.53 in 10.0 mi Calm Calm - N/A   Clear
8:53 PM 28.0 °F - 19.9 °F 72% 30.53 in 10.0 mi Calm Calm - N/A   Scattered Clouds
9:53 PM 28.9 °F - 21.0 °F 72% 30.53 in 10.0 mi Calm Calm - N/A   Overcast
10:53 PM 28.0 °F 22.8 °F 18.0 °F 66% 30.48 in 10.0 mi NE 4.6 mph - N/A   Scattered Clouds
11:53 PM 30.0 °F 24.1 °F 16.0 °F 56% 30.49 in 10.0 mi ENE 5.8 mph - N/A   Overcast